N5PA Weather Reports


time (UTC)temp
C
wind
direction
speed
KPH
gust
KPH
rain 1hr
cm
rain 24hr
cm
rain mn
cm
humidity
%
barometer
mb
20260510115505 18 38 1.6 3.2 0.00 0.66 0.00 8 1016.3
20260510115007 18 37 0.0 3.2 0.00 0.69 0.00 8 1016.3
20260510114505 18 37 0.0 3.2 0.00 0.74 0.00 8 1016.1
20260510114006 17 37 0.0 3.2 0.00 0.79 0.00 8 1016.0
20260510113506 17 32 0.0 1.6 0.00 0.81 0.00 8 1015.8
20260510113005 17 13 0.0 3.2 0.00 0.89 0.00 8 1015.7
20260510112506 17 314 0.0 3.2 0.00 0.97 0.00 9 1015.7
20260510112006 17 270 0.0 3.2 0.00 1.17 0.00 9 1015.5
20260510111505 17 267 0.0 3.2 0.00 1.50 0.00 9 1015.5
20260510111005 17 246 0.0 1.6 0.00 1.83 0.00 9 1015.4
20260510110505 17 0 0.0 0.0 0.00 2.57 0.00 9 1015.3
20260510110006 17 0 0.0 0.0 0.00 2.97 0.00 9 1015.2
20260510105506 17 0 0.0 0.0 0.00 3.05 0.00 9 1015.2
20260510104505 17 0 0.0 0.0 0.00 3.07 0.00 9 1015.1
20260510104005 17 0 0.0 0.0 0.00 3.07 0.00 9 1015.0
20260510103504 17 0 0.0 0.0 0.00 3.07 0.00 9 1014.9
20260510103005 17 0 0.0 0.0 0.00 3.07 0.00 9 1014.9
20260510102505 17 0 0.0 0.0 0.00 3.07 0.00 9 1014.9
20260510102006 17 0 0.0 0.0 0.00 3.07 0.00 9 1014.8
20260510101506 17 0 0.0 0.0 0.00 3.07 0.00 9 1014.8
20260510101005 17 0 0.0 0.0 0.00 3.07 0.00 9 1014.8
20260510100506 17 0 0.0 0.0 0.00 3.07 0.00 9 1014.8
20260510100006 17 0 0.0 0.0 0.00 3.07 0.00 9 1014.9
20260510095505 17 0 0.0 0.0 0.00 3.07 0.00 10 1014.8
20260510095006 17 0 0.0 0.0 0.00 3.07 0.00 10 1014.8
20260510094505 17 0 0.0 0.0 0.00 3.07 0.00 10 1014.7
20260510094006 17 0 0.0 0.0 0.00 3.07 0.00 10 1014.6
20260510093505 17 0 0.0 0.0 0.00 3.07 0.00 10 1014.6
20260510093006 17 0 0.0 0.0 0.00 3.07 0.00 10 1014.5
20260510092505 17 0 0.0 0.0 0.00 3.07 0.00 10 1014.5
20260510092005 17 0 0.0 0.0 0.00 3.07 0.00 10 1014.5
20260510090506 17 0 0.0 0.0 0.00 3.07 0.00 10 1014.4
20260510090006 17 0 0.0 0.0 0.00 3.07 0.00 10 1014.5
20260510085505 17 0 0.0 0.0 0.00 3.07 0.00 10 1014.6
20260510085005 17 0 0.0 0.0 0.00 3.07 0.00 10 1014.6
20260510084506 17 0 0.0 0.0 0.00 3.07 0.00 10 1014.6
20260510084006 17 0 0.0 0.0 0.00 3.07 0.00 10 1014.6
20260510083506 17 0 0.0 0.0 0.00 3.07 0.00 10 1014.5
20260510083004 17 0 0.0 0.0 0.00 3.07 0.00 10 1014.4
20260510082505 17 0 0.0 0.0 0.00 3.07 0.00 10 1014.4
20260510082004 17 0 0.0 0.0 0.00 3.07 0.00 10 1014.3
20260510081005 17 0 0.0 0.0 0.00 3.07 0.00 11 1014.1
20260510080005 17 0 0.0 0.0 0.00 3.07 0.00 11 1014.1
20260510075506 17 0 0.0 0.0 0.00 3.07 0.00 11 1014.0
20260510075005 17 0 0.0 0.0 0.00 3.07 0.00 11 1014.0
20260510074505 17 0 0.0 0.0 0.00 3.07 0.00 11 1014.0
20260510074005 17 0 0.0 0.0 0.00 3.07 0.00 11 1014.0
20260510073505 17 0 0.0 0.0 0.00 3.07 0.00 11 1014.1
20260510073004 17 0 0.0 0.0 0.00 3.07 0.00 11 1013.9
20260510072505 17 0 0.0 0.0 0.00 3.07 0.00 11 1013.9
20260510072005 17 0 0.0 0.0 0.00 3.07 0.00 11 1013.9
20260510071504 17 0 0.0 0.0 0.00 3.07 0.00 11 1013.8
20260510071004 17 0 0.0 0.0 0.00 3.07 0.00 11 1013.8
20260510070005 17 0 0.0 0.0 0.00 3.07 0.00 12 1013.7
20260510065506 17 0 0.0 0.0 0.00 3.07 0.00 12 1013.7
20260510065005 17 0 0.0 0.0 0.00 3.07 0.00 12 1013.8
20260510064505 17 0 0.0 0.0 0.00 3.07 0.00 12 1013.8
20260510064006 17 0 0.0 0.0 0.00 3.07 0.00 12 1013.7
20260510063505 17 0 0.0 0.0 0.00 3.07 0.00 13 1013.6
20260510063004 17 0 0.0 0.0 0.00 3.07 0.00 13 1013.6
20260510062504 17 0 0.0 0.0 0.00 3.07 0.00 13 1013.5
20260510062005 17 0 0.0 0.0 0.00 3.07 0.00 13 1013.5
20260510061505 17 0 0.0 0.0 0.00 3.07 0.00 13 1013.4
20260510061004 17 0 0.0 0.0 0.00 3.07 0.00 13 1013.3
20260510060505 17 0 0.0 0.0 0.00 3.07 0.00 13 1013.3
20260510060004 17 0 0.0 0.0 0.00 3.07 0.00 13 1013.2
20260510055505 17 0 0.0 0.0 0.00 3.07 0.00 13 1013.3
20260510054008 17 0 0.0 0.0 0.00 3.07 0.00 13 1013.4
20260510053008 17 0 0.0 0.0 0.00 3.07 0.00 14 1013.5
20260510052508 18 0 0.0 0.0 0.00 3.07 0.00 13 1013.7
20260510051508 18 0 0.0 0.0 0.00 3.07 0.00 14 1013.9
20260510051007 18 0 0.0 0.0 0.00 3.07 0.00 14 1013.9
20260510050508 18 0 0.0 0.0 0.00 3.07 0.00 14 1013.8
20260510050009 18 0 0.0 0.0 0.00 3.07 0.00 15 1013.9
20260510045508 18 0 0.0 0.0 0.00 3.07 3.07 15 1013.8
20260510045007 18 0 0.0 0.0 0.00 3.07 3.07 15 1013.9
20260510044509 18 0 0.0 0.0 0.00 3.07 3.07 15 1013.8
20260510044007 18 0 0.0 0.0 0.00 3.07 3.07 15 1013.8
20260510043508 18 0 0.0 0.0 0.00 3.07 3.07 16 1014.0
20260510043008 18 0 0.0 0.0 0.00 3.07 3.07 16 1014.1
20260510042507 18 0 0.0 0.0 0.00 3.07 3.07 16 1014.2
20260510042008 18 0 0.0 0.0 0.00 3.07 3.07 16 1014.2
20260510041507 18 0 0.0 0.0 0.00 3.07 3.07 17 1014.3
20260510041008 18 0 0.0 0.0 0.00 3.07 3.07 17 1014.4
20260510040508 18 0 0.0 0.0 0.00 3.07 3.07 17 1014.3
20260510035507 18 0 0.0 0.0 0.00 3.07 3.07 18 1014.3
20260510035008 18 0 0.0 0.0 0.00 3.07 3.07 18 1014.4
20260510034509 18 0 0.0 0.0 0.00 3.07 3.07 18 1014.3
20260510034008 18 0 0.0 0.0 0.00 3.07 3.07 19 1014.3
20260510033508 18 0 0.0 0.0 0.00 3.07 3.07 19 1014.2
20260510033007 18 0 0.0 0.0 0.00 3.07 3.07 20 1014.0
20260510032508 18 0 0.0 0.0 0.00 3.07 3.07 20 1014.0
20260510032008 18 0 0.0 0.0 0.00 3.07 3.07 21 1014.2
20260510031508 18 0 0.0 0.0 0.00 3.07 3.07 22 1014.3
20260510031009 18 0 0.0 0.0 0.00 3.07 3.07 22 1014.3
20260510030508 18 0 0.0 0.0 0.00 3.07 3.07 23 1014.3
20260510030008 18 0 0.0 0.0 0.00 3.07 3.07 23 1014.2
20260510025507 18 0 0.0 0.0 0.00 3.07 3.07 24 1014.1
20260510025008 18 0 0.0 0.0 0.00 3.07 3.07 25 1014.2
20260510024507 18 0 0.0 0.0 0.00 3.07 3.07 25 1014.3
20260510024007 18 0 0.0 0.0 0.00 3.07 3.07 26 1014.3
20260510023508 18 0 0.0 0.0 0.00 3.07 3.07 27 1014.2
20260510023007 18 0 0.0 0.0 0.00 3.07 3.07 27 1014.2
20260510022508 18 0 0.0 0.0 0.00 3.07 3.07 28 1014.1
20260510022007 18 0 0.0 0.0 0.00 3.07 3.07 29 1014.0
20260510021506 18 0 0.0 0.0 0.00 3.07 3.07 29 1014.0
20260510021006 18 0 0.0 0.0 0.00 3.07 3.07 30 1013.9
20260510020507 19 0 0.0 0.0 0.00 3.07 3.07 31 1014.1
20260510020008 19 0 0.0 0.0 0.00 3.07 3.07 31 1014.1
20260510015508 19 0 0.0 0.0 0.00 3.07 3.07 32 1014.0
20260510015008 19 0 0.0 0.0 0.00 3.07 3.07 33 1014.1
20260510014508 19 0 0.0 0.0 0.00 3.07 3.07 34 1013.7
20260510014008 19 128 0.0 3.2 0.00 3.07 3.07 34 1013.7
20260510013508 19 128 0.0 3.2 0.00 3.07 3.07 35 1013.6
20260510013008 19 128 0.0 3.2 0.00 3.07 3.07 36 1013.6
20260510012507 19 0 0.0 0.0 0.00 3.07 3.07 38 1013.6
20260510012008 19 0 0.0 0.0 0.00 3.07 3.07 38 1013.4
20260510011507 19 0 0.0 0.0 0.00 3.07 3.07 39 1013.2
20260510011006 19 0 0.0 0.0 0.00 3.07 3.07 39 1013.4
20260510010007 19 0 0.0 0.0 0.00 3.07 3.07 40 1013.4
20260510005508 20 0 0.0 0.0 0.00 3.07 3.07 41 1013.3
20260510005008 20 350 0.0 3.2 0.00 3.07 3.07 41 1013.3
20260510003507 20 245 1.6 4.8 0.00 3.07 3.07 42 1013.3
20260510003008 20 239 1.6 4.8 0.00 3.07 3.07 42 1013.2
20260510002506 20 231 0.0 4.8 0.00 3.07 3.07 42 1013.1
20260510002008 20 215 1.6 4.8 0.00 3.07 3.07 43 1013.1
20260510001508 20 209 1.6 3.2 0.00 3.07 3.07 42 1013.1
20260510001007 20 211 1.6 4.8 0.00 3.07 3.07 43 1012.9
20260510000507 20 212 1.6 6.4 0.00 3.07 3.07 43 1012.9
20260510000006 20 237 1.6 6.4 0.00 3.07 3.07 44 1012.7
20260509235507 20 272 1.6 4.8 0.00 3.07 3.07 43 1012.7
20260509235007 20 273 0.0 4.8 0.00 3.07 3.07 43 1012.7
20260509234508 20 273 0.0 4.8 0.00 3.07 3.07 45 1012.3
20260509234008 20 357 0.0 3.2 0.00 3.07 3.07 44 1012.3
20260509233508 20 17 1.6 3.2 0.00 3.07 3.07 45 1012.4
20260509233008 20 16 1.6 3.2 0.00 3.07 3.07 45 1012.3
20260509232508 20 16 1.6 3.2 0.00 3.07 3.07 47 1012.3
20260509232008 20 29 0.0 3.2 0.00 3.07 3.07 48 1012.4
20260509231507 20 121 1.6 4.8 0.00 3.07 3.07 49 1012.3
20260509231006 20 132 1.6 4.8 0.00 3.07 3.07 52 1012.5
20260509230508 20 132 1.6 4.8 0.00 3.07 3.07 51 1012.5
20260509230007 20 132 0.0 3.2 0.00 3.07 3.07 50 1012.3
20260509225507 20 133 0.0 1.6 0.00 3.07 3.07 51 1012.4
20260509225008 20 132 0.0 4.8 0.00 3.07 3.07 53 1012.4
20260509224508 20 132 1.6 4.8 0.00 3.07 3.07 53 1012.3
20260509224008 20 133 1.6 3.2 0.00 3.07 3.07 55 1012.3
20260509223507 20 133 1.6 3.2 0.00 3.07 3.07 51 1012.1
20260509223006 20 142 0.0 3.2 0.00 3.07 3.07 55 1012.0
20260509222506 20 168 0.0 3.2 0.00 3.07 3.07 56 1012.1
20260509222006 20 275 0.0 3.2 0.00 3.07 3.07 57 1012.1
20260509221506 20 296 0.0 3.2 0.00 3.07 3.07 57 1012.1
20260509221007 20 312 1.6 3.2 0.00 3.07 3.07 58 1012.0
20260509220507 20 319 1.6 3.2 0.00 3.07 3.07 58 1012.1
20260509220007 20 323 0.0 3.2 0.00 3.07 3.07 58 1011.8
20260509215506 20 234 0.0 3.2 0.00 3.10 3.07 57 1011.7
20260509215007 20 194 0.0 3.2 0.00 3.10 3.07 57 1011.7
20260509214506 20 194 0.0 3.2 0.00 3.10 3.07 58 1011.7
20260509214006 20 194 0.0 3.2 0.00 3.10 3.07 57 1011.5
20260509213507 20 194 0.0 3.2 0.00 3.10 3.07 56 1011.5
20260509213008 20 210 0.0 3.2 0.00 3.10 3.07 55 1011.4
20260509212506 20 216 0.0 4.8 0.00 3.10 3.07 57 1011.6
20260509211506 20 231 0.0 3.2 0.00 3.10 3.07 57 1011.7
20260509211008 21 0 0.0 0.0 0.00 3.12 3.07 57 1011.8
20260509210007 21 217 0.0 3.2 0.00 3.15 3.07 56 1011.8
20260509205008 21 216 0.0 3.2 0.00 3.20 3.07 54 1011.9
20260509204507 20 216 1.6 4.8 0.00 3.23 3.07 53 1011.9
20260509204006 20 271 1.6 6.4 0.00 3.23 3.07 55 1011.8
20260509203506 20 273 3.2 6.4 0.00 3.25 3.07 57 1012.1
20260509203006 20 227 3.2 4.8 0.00 3.28 3.07 60 1012.1
20260509202506 20 111 3.2 6.4 0.00 3.30 3.07 59 1012.0
20260509202007 20 92 3.2 6.4 0.00 3.30 3.07 61 1012.2
20260509201506 20 163 1.6 4.8 0.00 3.33 3.07 59 1012.1
20260509201008 20 225 1.6 4.8 0.00 3.35 3.07 59 1012.0
20260509200507 20 240 3.2 6.4 0.00 3.38 3.07 59 1012.0
20260509200006 20 255 3.2 11.3 0.00 3.40 3.07 60 1012.0
20260509195506 20 257 3.2 11.3 0.00 3.43 3.07 58 1012.1
20260509195007 20 258 3.2 6.4 0.00 3.45 3.07 56 1012.2
20260509194507 20 261 3.2 6.4 0.00 3.51 3.07 57 1012.3
20260509194006 20 250 3.2 6.4 0.00 3.53 3.07 57 1012.4
20260509193507 20 249 3.2 8.0 0.00 3.56 3.07 56 1012.4
20260509192506 20 262 1.6 4.8 0.00 3.58 3.07 56 1012.6
20260509192006 20 276 1.6 4.8 0.00 3.61 3.07 53 1012.6
20260509191507 20 247 1.6 4.8 0.00 3.63 3.07 52 1012.6
20260509191007 20 221 1.6 4.8 0.00 3.66 3.07 54 1012.6
20260509190506 20 229 1.6 6.4 0.00 3.68 3.07 56 1012.4
20260509190007 20 227 1.6 6.4 0.00 3.71 3.07 52 1012.4
20260509185506 20 229 1.6 4.8 0.00 3.76 3.07 53 1012.5
20260509185006 20 233 0.0 3.2 0.00 3.78 3.07 47 1012.2
20260509184506 20 234 1.6 6.4 0.00 3.81 3.07 46 1012.2
20260509184007 20 236 3.2 8.0 0.00 3.84 3.07 50 1012.3
20260509183506 20 213 3.2 8.0 0.00 3.86 3.07 47 1012.3
20260509183007 20 195 3.2 6.4 0.00 3.89 3.07 45 1012.3
20260509182506 20 221 3.2 6.4 0.00 3.94 3.07 44 1012.3
20260509182008 20 241 3.2 6.4 0.00 3.99 3.07 42 1012.1
20260509181507 20 240 3.2 8.0 0.00 4.01 3.07 41 1012.3
20260509180505 20 118 1.6 4.8 0.00 4.06 3.07 26 1012.2
20260509180006 20 173 1.6 4.8 0.00 4.06 3.07 25 1012.3
20260509175507 20 225 1.6 6.4 0.00 4.06 3.07 24 1012.3
20260509175006 20 235 3.2 6.4 0.00 4.06 3.07 20 1012.6
20260509174506 20 226 1.6 4.8 0.00 4.06 3.07 13 1012.3
20260509174006 20 226 1.6 4.8 0.00 4.09 3.07 9 1012.3
20260509173507 20 233 0.0 3.2 0.00 4.09 3.07 8 1012.3
20260509173006 19 233 1.6 3.2 0.00 4.11 3.07 7 1012.4
20260509172508 19 234 0.0 4.8 0.00 4.14 3.07 7 1012.6
20260509172007 19 234 1.6 4.8 0.00 4.17 3.07 7 1012.7
20260509171506 19 234 1.6 4.8 0.00 4.19 3.07 7 1012.9
20260509171006 19 230 1.6 6.4 0.00 4.22 3.07 8 1013.1
20260509170507 19 227 1.6 6.4 0.00 4.22 3.07 8 1013.3
20260509170007 18 224 1.6 6.4 0.00 4.24 3.07 9 1013.4
20260509165507 18 224 1.6 6.4 0.00 4.24 3.07 10 1013.7
20260509165005 18 239 1.6 6.4 0.00 4.27 3.07 10 1013.7
20260509164507 18 327 1.6 4.8 0.00 4.27 3.07 11 1013.8
20260509164007 18 357 1.6 4.8 0.00 4.29 3.07 11 1013.7
20260509163506 18 348 1.6 4.8 0.00 4.29 3.07 11 1013.8
20260509163007 18 339 1.6 4.8 0.00 4.29 3.07 12 1013.8
20260509162506 18 345 1.6 4.8 0.00 4.32 3.07 12 1013.8
20260509162006 18 345 1.6 4.8 0.00 4.32 3.07 12 1013.6
20260509161505 18 347 1.6 4.8 0.00 4.32 3.07 12 1013.6
20260509161006 18 358 1.6 4.8 0.00 4.32 3.07 12 1013.5
20260509160507 18 6 1.6 4.8 0.00 4.34 3.07 13 1013.5
20260509160007 18 270 0.0 3.2 0.00 4.34 3.07 13 1013.4
20260509155507 18 233 0.0 3.2 0.00 4.34 3.07 13 1013.4
20260509155006 18 235 0.0 3.2 0.00 4.34 3.07 13 1013.2
20260509154506 18 234 1.6 3.2 0.00 4.37 3.07 13 1012.8
20260509154007 18 215 1.6 3.2 0.00 4.37 3.07 13 1012.7
20260509153506 18 174 0.0 3.2 0.00 4.37 3.07 13 1013.0
20260509153006 18 173 0.0 3.2 0.00 4.37 3.07 13 1013.2
20260509152506 17 173 0.0 3.2 0.00 4.39 3.07 13 1013.2
20260509152007 17 172 1.6 3.2 0.00 4.39 3.07 13 1013.4
20260509151507 17 171 1.6 3.2 0.00 4.39 3.07 13 1013.3
20260509151007 17 169 1.6 3.2 0.00 4.39 3.07 13 1013.1
20260509150507 17 169 0.0 3.2 0.00 4.39 3.07 13 1013.2
20260509150006 17 169 0.0 3.2 0.00 4.39 3.07 14 1013.1
20260509145507 17 169 0.0 3.2 0.00 4.39 3.07 14 1013.3
20260509144505 17 169 0.0 3.2 0.00 4.39 3.07 14 1013.1
20260509144007 17 169 0.0 3.2 0.00 4.39 3.07 14 1013.0
20260509143506 17 169 1.6 4.8 0.00 4.39 3.07 14 1012.9
20260509143006 17 169 1.6 4.8 0.00 4.39 3.07 14 1012.6
20260509142506 17 170 1.6 4.8 0.03 4.39 3.07 14 1012.6
20260509142006 17 170 1.6 6.4 0.05 4.39 3.07 14 1012.5
20260509141507 17 156 1.6 8.0 0.08 4.39 3.07 14 1012.6
20260509141005 17 157 3.2 8.0 0.10 4.39 3.07 14 1012.3
20260509135506 17 154 3.2 9.7 0.20 4.39 3.07 14 1012.1
20260509135006 17 140 3.2 9.7 0.25 4.39 3.07 14 1012.1
20260509134506 17 140 3.2 9.7 0.30 4.39 3.07 14 1011.8
20260509134006 17 140 3.2 8.0 0.36 4.39 3.07 14 1011.8
20260509133506 17 126 3.2 8.0 0.41 4.39 3.07 14 1011.9
20260509133007 17 144 3.2 8.0 0.43 4.39 3.07 14 1012.0
20260509132506 17 172 1.6 6.4 0.46 4.37 3.05 14 1012.3
20260509132006 17 172 1.6 4.8 0.43 4.34 3.02 14 1012.5
20260509131506 17 127 1.6 8.0 0.43 4.29 2.97 14 1012.5
20260509131006 17 110 3.2 8.0 0.46 4.29 2.97 14 1012.3
20260509130506 17 110 4.8 11.3 0.43 4.24 2.92 14 1012.2
20260509130005 17 101 4.8 11.3 0.46 4.22 2.90 14 1012.5
20260509125507 17 83 1.6 4.8 0.43 4.17 2.84 15 1013.4
20260509125005 17 62 0.0 3.2 0.41 4.11 2.79 15 1013.9
20260509124507 17 42 0.0 4.8 0.43 4.09 2.77 15 1014.3
20260509124006 17 25 1.6 4.8 0.43 4.04 2.72 15 1014.1
20260509123506 17 347 0.0 3.2 0.41 3.99 2.67 15 1013.9
20260509123005 17 347 1.6 4.8 0.46 3.96 2.64 15 1014.1
20260509122506 17 347 1.6 4.8 0.48 3.91 2.59 15 1014.1
20260509122006 17 352 0.0 4.8 0.69 3.91 2.59 15 1013.9
20260509121505 17 326 1.6 4.8 0.91 3.86 2.54 15 1013.8
20260509121005 17 285 3.2 6.4 1.27 3.84 2.51 15 1014.1
20260509120506 17 270 3.2 9.7 1.98 3.81 2.49 15 1014.1